Temp
-3 -3 -3 -3 -3 -3 -3 -3 -3 -3 -2 -2 -2 -2 -2 -2 -3 -3 -3 -4 -4 -6 -7 -7 -7 -8 -8 -7 -6 -5 -6 -6 -7 -7 -6 -5 -5 -5 -5 -6 -6 -6 -6 -5 -6
-4 -3 -3 -3 -3 -3 -3 -3 -3 -3 -3 -2 -2 -2 -2 -2 -2 -2 -3 -4 -4 -5 -6 -6 -7 -7 -7 -7 -6 -5 -6 -6 -7 -8 -7 -5 -6 -5 -5 -5 -6 -6 -7 -6 -6
-3 -3 -3 -3 -3 -3 -3 -3 -3 -3 -3 -3 -2 -2 -2 -2 -2 -2 -2 -3 -4 -4 -5 -6 -6 -7 -7 -7 -6 -6 -6 -7 -8 -8 -8 -6 -5 -5 -5 -6 -6 -6 -7 -6 -6
-4 -4 -3 -3 -3 -3 -3 -3 -3 -3 -3 -3 -3 -2 -2 -2 -1 -2 -2 -3 -3 -4 -4 -5 -6 -6 -7 -7 -8 -7 -7 -7 -8 -7 -9 -8 -6 -5 -6 -6 -6 -6 -6 -7 -6
-4 -3 -4 -4 -4 -3 -3 -3 -3 -3 -3 -3 -3 -3 -2 -2 -2 -2 -2 -3 -3 -3 -4 -4 -5 -6 -6 -6 -8 -8 -7 -7 -7 -7 -8 -9 -6 -5 -6 -6 -6 -6 -7 -7 -6
-4 -4 -4 -3 -3 -3 -3 -3 -3 -3 -3 -3 -3 -3 -3 -3 -2 -3 -2 -2 -3 -3 -3 -4 -4 -5 -6 -6 -8 -8 -8 -8 -6 -8 -9 -8 -6 -6 -6 -6 -5 -6 -6 -7 -6
-4 -4 -4 -4 -3 -3 -3 -3 -3 -3 -3 -3 -3 -3 -3 -3 -3 -3 -3 -2 -3 -3 -3 -4 -5 -5 -5 -6 -8 -8 -8 -6 -6 -8 -8 -7 -6 -6 -6 -6 -6 -5 -6 -6 -6
-4 -4 -4 -4 -3 -3 -3 -3 -3 -3 -3 -3 -3 -3 -3 -3 -3 -3 -3 -2 -2 -3 -3 -4 -4 -4 -5 -6 -8 -7 -7 -7 -7 -7 -8 -5 -6 -5 -5 -6 -6 -6 -5 -6 -6
-4 -4 -4 -4 -4 -4 -3 -3 -3 -3 -3 -3 -3 -3 -3 -3 -3 -3 -3 -3 -3 -3 -3 -4 -4 -4 -5 -5 -8 -7 -7 -7 -7 -6 -6 -5 -5 -6 -5 -5 -5 -5 -5 -5 -6
-4 -4 -3 -3 -3 -3 -4 -4 -4 -4 -4 -3 -3 -3 -3 -3 -3 -3 -3 -3 -3 -3 -3 -3 -4 -4 -4 -5 -6 -7 -7 -6 -7 -7 -6 -5 -8 -5 -5 -5 -5 -5 -5 -5 -5
-3 -4 -3 -3 -3 -3 -3 -3 -3 -4 -4 -3 -3 -3 -3 -3 -3 -3 -3 -3 -3 -4 -3 -3 -4 -2 -3 -5 -6 -7 -6 -7 -6 -6 -7 -8 -8 -6 -5 -5 -5 -4 -5 -5 -5
-3 -3 -3 -3 -3 -3 -3 -3 -4 -3 -4 -4 -3 -3 -3 -2 -3 -3 -3 -3 -3 -3 -4 -4 -3 -4 -5 -5 -5 -7 -6 -6 -6 -6 -7 -8 -8 -8 -6 -5 -5 -5 -5 -5 -5
-3 -3 -4 -3 -3 -3 -4 -4 -3 -3 -3 -4 -3 -3 -3 -3 -3 -3 -3 -4 -3 -3 -4 -4 -3 -4 -5 -5 -6 -7 -6 -6 -6 -7 -6 -7 -7 -7 -8 -6 -5 -5 -5 -5 -5
-4 -4 -4 -3 -3 -3 -3 -4 -4 -4 -3 -3 -4 -3 -3 -3 -3 -4 -3 -4 -3 -3 -4 -4 -4 -4 -5 -5 -6 -7 -7 -7 -6 -6 -6 -7 -6 -6 -7 -6 -5 -5 -5 -5 -5
-4 -4 -4 -4 -3 -3 -4 -4 -4 -4 -4 -2 -2 -3 -3 -4 -3 -3 -3 -3 -4 -4 -4 -4 -4 -4 -5 -4 -6 -7 -7 -7 -7 -6 -6 -6 -7 -6 -6 -7 -6 -5 -5 -5 -5
-4 -4 -4 -4 -4 -4 -4 -4 -4 -4 -3 -3 -3 -3 -4 -4 -4 -3 -4 -4 -4 -4 -4 -4 -5 -5 -4 -5 -6 -6 -8 -7 -7 -6 -6 -6 -6 -6 -6 -6 -7 -7 -6 -5 -5
-5 -4 -4 -5 -5 -5 -4 -4 -4 -3 -3 -3 -3 -4 -4 -4 -4 -4 -4 -4 -4 -4 -4 -4 -4 -5 -5 -5 -5 -6 -8 -7 -7 -6 -6 -6 -6 -6 -6 -6 -6 -7 -7 -6 -6
-5 -5 -5 -5 -5 -5 -5 -5 -4 -3 -3 -5 -4 -4 -5 -6 -4 -4 -5 -5 -4 -4 -5 -5 -4 -4 -5 -4 -5 -6 -7 -7 -7 -6 -6 -6 -5 -5 -6 -6 -6 -7 -7 -7 -7
-5 -5 -6 -6 -6 -7 -6 -5 -4 -4 -5 -6 -6 -6 -5 -6 -6 -5 -5 -5 -5 -5 -5 -6 -5 -6 -6 -6 -6 -7 -7 -7 -7 -6 -6 -5 -6 -6 -6 -6 -7 -7 -7 -7 -7
-5 -6 -7 -6 -7 -7 -7 -4 -5 -6 -6 -6 -7 -7 -7 -6 -7 -7 -6 -5 -5 -5 -6 -6 -9 -7 -7 -8 -6 -7 -7 -8 -7 -6 -6 -5 -5 -6 -6 -6 -7 -7 -7 -7 -7
-5 -7 -7 -8 -8 -8 -7 -6 -7 -7 -7 -7 -7 -7 -8 -9 -9 -8 -7 -8 -7 -6 -6 -7 -7 -8 -9 -6 -4 -6 -7 -8 -7 -7 -6 -6 -5 -5 -6 -7 -7 -7 -7 -7 -7
-8 -8 -8 -10 -10 -10 -9 -8 -8 -8 -9 -7 -8 -8 -8 -11 -11 -10 -10 -10 -10 -8 -6 -7 -8 -9 -8 -8 -9 -9 -8 -8 -8 -8 -7 -6 -5 -6 -6 -7 -7 -7 -7 -7 -7
-11 -12 -14 -12 -12 -12 -12 -10 -10 -9 -9 -10 -8 -8 -10 -10 -12 -12 -11 -11 -11 -9 -8 -9 -8 -10 -9 -9 -9 -7 -6 -8 -8 -8 -7 -7 -6 -7 -7 -7 -7 -7 -7 -7 -8
-16 -16 -18 -16 -16 -16 -15 -13 -11 -12 -11 -10 -10 -10 -11 -11 -11 -11 -12 -12 -12 -9 -9 -8 -11 -8 -9 -7 -9 -9 -9 -9 -8 -8 -7 -7 -7 -7 -7 -7 -7 -7 -7 -8 -8
-20 -20 -20 -20 -21 -20 -18 -16 -16 -14 -12 -14 -13 -13 -13 -12 -12 -11 -11 -12 -13 -11 -9 -9 -9 -10 -7 -10 -10 -9 -9 -9 -9 -8 -8 -7 -8 -7 -7 -7 -8 -8 -7 -7 -7
-23 -23 -23 -23 -22 -22 -21 -20 -18 -17 -17 -15 -15 -16 -16 -14 -13 -12 -13 -12 -13 -12 -10 -9 -9 -10 -11 -10 -10 -10 -9 -10 -9 -9 -9 -8 -8 -8 -8 -8 -8 -8 -6 -8 -7
-24 -24 -24 -24 -24 -23 -22 -21 -21 -20 -18 -17 -18 -16 -16 -16 -17 -15 -16 -15 -14 -13 -11 -10 -11 -10 -9 -11 -10 -10 -10 -9 -10 -10 -9 -9 -9 -9 -9 -8 -8 -8 -8 -6 -6
Height
5891 5890 5889 5887 5887 5886 5887 5886 5885 5885 5885 5886 5887 5887 5888 5887 5887 5887 5887 5890 5891 5893 5895 5898 5899 5901 5902 5903 5906 5908 5907 5913 5918 5915 5907 5904 5903 5902 5901 5901 5900 5901 5902 5903 5902
5891 5890 5888 5887 5886 5885 5883 5883 5883 5882 5882 5883 5884 5885 5885 5886 5886 5886 5888 5888 5890 5891 5894 5897 5899 5901 5903 5903 5906 5906 5899 5914 5917 5914 5907 5905 5904 5903 5903 5902 5901 5901 5902 5903 5902
5890 5889 5888 5886 5886 5885 5883 5881 5880 5880 5880 5880 5880 5882 5883 5883 5885 5886 5887 5888 5889 5891 5892 5895 5899 5902 5904 5904 5907 5908 5900 5913 5914 5914 5908 5906 5905 5904 5904 5903 5902 5901 5902 5903 5903
5889 5888 5887 5886 5884 5883 5882 5880 5879 5878 5878 5877 5877 5878 5879 5880 5882 5884 5886 5887 5889 5891 5892 5895 5898 5901 5903 5905 5907 5910 5910 5912 5913 5910 5909 5907 5906 5905 5905 5904 5902 5902 5902 5903 5903
5886 5885 5884 5883 5883 5881 5880 5879 5877 5877 5876 5875 5875 5875 5875 5876 5879 5882 5884 5885 5887 5889 5892 5894 5896 5899 5902 5904 5908 5912 5911 5910 5910 5909 5912 5909 5906 5905 5905 5904 5903 5903 5903 5904 5904
5884 5883 5882 5881 5880 5879 5878 5877 5876 5874 5874 5873 5872 5872 5872 5874 5876 5878 5881 5883 5885 5886 5889 5892 5895 5898 5899 5902 5908 5912 5912 5912 5909 5909 5909 5908 5906 5906 5906 5905 5904 5903 5903 5905 5905
5880 5880 5879 5878 5877 5877 5876 5875 5874 5873 5872 5871 5870 5869 5870 5871 5871 5872 5876 5880 5882 5884 5886 5890 5892 5892 5897 5898 5904 5910 5909 5908 5908 5909 5908 5907 5907 5907 5906 5905 5905 5904 5905 5906 5906
5878 5877 5876 5874 5873 5873 5873 5872 5871 5870 5869 5868 5868 5867 5866 5867 5867 5869 5870 5875 5878 5880 5883 5886 5887 5892 5892 5898 5902 5904 5907 5913 5908 5907 5907 5908 5907 5907 5907 5907 5906 5906 5906 5907 5907
5874 5873 5873 5872 5870 5869 5869 5868 5867 5866 5866 5865 5865 5865 5864 5864 5864 5865 5867 5870 5873 5876 5878 5880 5883 5889 5891 5893 5899 5901 5908 5912 5906 5907 5905 5905 5882 5904 5908 5907 5907 5906 5907 5908 5908
5868 5866 5866 5867 5866 5865 5864 5864 5863 5863 5862 5861 5861 5862 5862 5861 5861 5861 5863 5864 5868 5871 5873 5876 5879 5883 5885 5889 5893 5902 5905 5913 5908 5906 5904 5907 5910 5906 5907 5907 5907 5907 5908 5909 5909
5862 5860 5858 5859 5859 5858 5858 5858 5859 5859 5858 5857 5857 5857 5857 5857 5857 5857 5858 5860 5863 5865 5869 5873 5874 5875 5881 5888 5893 5903 5908 5906 5907 5904 5904 5906 5909 5908 5907 5907 5908 5907 5909 5909 5910
5853 5853 5851 5851 5852 5852 5850 5850 5850 5851 5854 5851 5850 5852 5851 5852 5853 5853 5854 5856 5857 5861 5863 5866 5867 5875 5880 5885 5889 5896 5904 5910 5910 5903 5903 5908 5910 5910 5906 5907 5908 5908 5908 5910 5911
5845 5845 5843 5841 5843 5844 5843 5843 5842 5842 5843 5846 5844 5845 5845 5848 5849 5848 5849 5850 5852 5853 5857 5861 5870 5873 5874 5879 5884 5889 5899 5906 5910 5903 5902 5908 5908 5910 5908 5906 5907 5907 5907 5908 5909
5836 5835 5835 5833 5834 5833 5834 5834 5834 5834 5834 5837 5837 5837 5840 5842 5843 5844 5843 5845 5847 5849 5850 5854 5861 5864 5868 5872 5879 5884 5891 5899 5906 5895 5901 5901 5908 5905 5906 5904 5905 5906 5906 5907 5908
5826 5825 5826 5825 5821 5822 5824 5823 5824 5825 5825 5822 5827 5831 5831 5834 5834 5837 5838 5837 5840 5843 5844 5848 5853 5858 5860 5867 5874 5880 5889 5893 5899 5899 5897 5901 5903 5905 5902 5902 5903 5904 5904 5905 5906
5812 5811 5812 5812 5812 5810 5811 5812 5813 5815 5810 5812 5815 5819 5822 5824 5825 5825 5829 5831 5833 5834 5837 5841 5845 5849 5855 5861 5867 5877 5883 5889 5892 5895 5891 5896 5896 5903 5889 5900 5902 5902 5902 5903 5904
5794 5794 5794 5795 5795 5796 5796 5797 5800 5798 5801 5802 5804 5809 5811 5813 5815 5817 5820 5822 5825 5828 5830 5834 5836 5841 5846 5851 5859 5866 5873 5879 5882 5882 5884 5889 5893 5891 5901 5897 5898 5901 5902 5901 5901
5773 5774 5774 5774 5775 5777 5777 5780 5780 5786 5788 5788 5792 5795 5799 5803 5803 5805 5808 5811 5815 5817 5821 5825 5828 5832 5837 5839 5849 5854 5862 5867 5872 5877 5883 5887 5883 5891 5896 5895 5890 5891 5899 5899 5897
5750 5750 5752 5753 5755 5755 5758 5759 5764 5770 5774 5774 5777 5781 5785 5789 5792 5793 5797 5801 5806 5809 5812 5815 5820 5823 5826 5832 5838 5846 5846 5864 5871 5875 5878 5881 5883 5884 5880 5885 5889 5890 5893 5897 5894
5725 5725 5726 5728 5730 5730 5733 5742 5745 5751 5755 5758 5759 5765 5772 5776 5777 5782 5783 5790 5794 5798 5802 5807 5811 5814 5819 5821 5824 5832 5849 5852 5854 5861 5865 5872 5875 5876 5878 5877 5881 5884 5886 5890 5890
5693 5693 5694 5698 5700 5701 5707 5720 5722 5728 5731 5737 5742 5748 5755 5761 5765 5766 5773 5778 5780 5785 5791 5796 5800 5808 5811 5808 5817 5820 5826 5838 5849 5853 5857 5864 5867 5875 5872 5870 5871 5876 5881 5888 5889
5661 5663 5661 5668 5671 5673 5681 5691 5695 5703 5708 5713 5719 5725 5734 5745 5751 5757 5758 5765 5770 5771 5776 5782 5788 5792 5798 5805 5806 5811 5818 5829 5832 5839 5845 5854 5862 5870 5868 5867 5868 5875 5881 5884 5886
5630 5631 5629 5634 5638 5643 5653 5661 5665 5673 5681 5688 5694 5701 5714 5725 5732 5740 5745 5753 5752 5754 5765 5772 5774 5782 5787 5795 5796 5795 5804 5814 5824 5835 5832 5841 5849 5859 5857 5862 5862 5865 5869 5874 5874
5601 5605 5605 5603 5610 5615 5622 5629 5634 5642 5653 5659 5671 5678 5689 5700 5709 5717 5725 5735 5737 5740 5752 5757 5765 5767 5774 5784 5793 5791 5793 5803 5814 5817 5823 5826 5843 5849 5852 5853 5856 5856 5860 5864 5865
5576 5579 5577 5585 5587 5587 5591 5600 5605 5616 5619 5630 5643 5655 5666 5678 5689 5697 5709 5718 5724 5726 5737 5746 5751 5760 5766 5775 5781 5785 5787 5791 5797 5805 5811 5823 5829 5837 5843 5847 5849 5851 5853 5857 5859
5561 5559 5558 5561 5565 5570 5577 5582 5589 5598 5600 5608 5619 5634 5648 5659 5670 5683 5693 5700 5708 5715 5720 5733 5740 5749 5756 5762 5768 5775 5780 5782 5787 5795 5800 5810 5815 5827 5834 5836 5839 5841 5844 5847 5849
5546 5546 5544 5548 5547 5552 5561 5566 5571 5573 5579 5597 5598 5605 5618 5631 5639 5651 5666 5683 5693 5702 5709 5720 5728 5735 5741 5752 5760 5763 5767 5774 5777 5780 5786 5790 5799 5813 5815 5819 5826 5830 5832 5835 5842
Wind_Speed
11 11 11 11 11 12 11 10 10 12 14 12 10 8 8 6 4 4 6 10 20 25 26 21 18 14 16 16 18 20 16 11 7 4 6 6 6 7 8 10 9 7 6 11 13
11 11 10 11 12 12 13 12 11 11 10 13 15 13 11 10 8 4 5 12 19 26 27 25 18 20 18 16 18 12 21 2 7 10 8 6 7 6 6 6 8 8 8 12 14
11 10 10 11 10 12 13 14 13 11 11 11 13 16 16 14 12 2 6 13 17 25 29 25 23 22 18 15 13 12 14 12 10 8 8 5 7 7 7 6 4 8 10 12 13
11 10 11 12 12 12 12 13 14 12 11 12 13 12 18 18 17 11 8 10 16 25 26 24 25 23 18 14 10 9 7 9 8 10 6 6 8 7 7 7 9 5 9 14 14
11 11 11 10 11 12 11 11 11 12 12 12 13 14 13 20 19 12 11 12 15 20 25 27 25 22 18 18 11 12 5 8 8 7 7 8 8 7 6 6 8 8 7 13 14
12 11 11 12 12 12 12 11 11 14 13 13 12 14 16 13 18 18 17 14 16 20 24 28 27 21 21 22 15 16 14 13 10 10 12 9 7 7 6 5 7 8 10 12 14
15 13 12 12 12 11 11 12 14 15 14 14 14 14 14 14 13 21 21 19 17 19 23 25 29 28 23 25 20 19 21 13 9 12 12 11 8 8 7 5 6 9 11 12 13
17 17 17 16 16 13 12 13 13 14 16 15 15 14 15 12 15 14 23 24 21 21 24 28 32 26 28 24 21 22 18 10 13 13 15 9 7 7 9 8 9 9 10 12 13
23 24 22 21 21 20 18 17 15 15 17 16 16 15 14 14 13 15 15 23 26 25 26 30 35 29 29 28 23 27 15 13 19 16 17 13 11 8 11 10 9 9 9 11 11
28 28 26 24 25 25 25 25 23 19 17 18 17 17 15 15 13 12 14 17 25 30 30 30 31 35 34 30 28 19 18 14 19 21 21 17 12 17 12 10 10 10 10 10 9
31 31 31 29 28 27 29 28 28 25 23 22 19 19 17 13 14 14 12 15 20 30 32 29 33 28 28 26 25 20 17 20 19 29 21 18 16 15 13 13 13 12 10 10 9
33 32 34 31 30 31 32 32 30 30 25 28 26 21 21 16 15 17 16 15 16 21 33 37 36 30 30 28 29 26 23 20 15 29 22 18 17 17 17 15 13 12 12 10 9
32 30 32 34 33 34 35 34 34 33 30 29 31 27 27 22 19 18 18 19 18 21 27 34 33 32 34 35 34 30 26 23 22 26 30 20 19 22 22 18 18 16 15 14 13
36 36 34 37 35 35 35 36 38 37 37 32 33 33 30 28 27 24 22 22 23 21 23 30 35 38 38 39 37 35 30 26 25 35 22 26 21 27 21 22 20 19 17 15 14
43 41 38 36 39 38 37 38 39 40 40 43 34 31 32 30 33 29 28 27 24 23 27 26 33 39 43 39 39 35 29 29 27 34 17 26 25 21 21 21 21 19 19 18 17
45 46 47 46 45 45 43 42 42 44 47 45 42 36 32 31 32 35 31 30 29 29 29 28 29 39 44 45 43 35 31 31 31 31 36 28 31 24 30 19 20 19 21 21 20
52 50 49 50 51 49 49 48 47 48 47 48 45 40 39 37 36 36 34 34 31 31 31 28 32 36 45 48 45 43 36 37 37 40 40 30 38 27 24 31 20 21 24 25 25
58 57 55 53 54 54 52 53 53 51 49 53 50 46 41 39 41 40 40 41 38 35 34 31 34 34 40 47 47 51 47 44 43 36 32 32 38 35 29 23 16 22 18 24 30
65 62 56 56 54 55 56 55 53 51 53 53 53 50 49 46 45 45 43 42 40 38 37 35 34 32 36 41 49 49 55 43 38 32 33 31 32 35 35 36 34 30 24 24 32
69 64 62 62 58 59 60 58 57 56 57 57 59 54 48 50 50 47 50 46 45 44 39 35 29 33 34 39 47 53 43 48 49 45 41 36 34 33 35 39 33 34 28 23 27
82 74 69 58 61 65 64 58 63 64 64 64 61 60 55 44 44 50 49 44 48 48 45 40 39 30 33 42 43 52 58 49 46 48 44 39 34 31 29 27 29 31 29 20 21
81 73 73 59 59 64 63 65 69 70 70 70 68 67 62 46 41 39 42 37 32 47 52 45 41 40 38 36 36 41 47 50 52 51 50 44 37 31 30 30 25 23 21 21 17
73 66 58 59 60 64 66 69 74 75 76 74 77 73 65 59 46 44 41 37 44 53 45 41 44 37 38 35 39 45 50 51 52 44 53 48 46 29 25 29 24 30 37 32 31
57 55 53 56 58 64 68 74 79 77 77 81 79 76 68 65 65 59 51 39 42 59 51 49 41 49 43 40 31 37 42 46 49 58 51 53 43 38 38 29 35 39 37 34 32
49 50 52 50 47 58 69 73 75 80 85 76 77 73 68 66 66 67 63 47 46 51 54 53 53 43 46 34 30 32 37 40 49 54 55 48 46 45 38 38 34 32 45 35 28
37 38 41 46 50 47 47 54 62 68 61 75 62 54 52 64 63 63 55 55 44 50 56 51 52 47 39 37 37 34 36 38 43 48 48 49 48 45 43 37 33 42 44 36 41
32 31 31 30 37 42 42 47 52 56 67 60 49 57 57 45 49 57 49 46 50 42 46 53 49 49 49 35 33 39 40 38 37 37 45 53 53 46 47 50 46 47 41 40 40
Wind_Direction
2 359 355 345 334 326 321 318 305 284 269 250 237 229 240 260 269 256 205 176 174 173 168 160 155 158 149 145 128 111 145 121 244 243 248 170 169 176 170 167 164 177 232 214 168
341 349 3 8 5 353 333 318 311 312 296 263 246 235 237 240 254 258 163 183 185 177 169 165 169 167 155 150 137 141 127 50 164 253 214 174 162 165 172 174 172 173 182 196 163
324 319 328 335 341 349 352 343 317 305 300 300 266 243 234 241 240 190 203 186 183 185 179 172 176 168 166 153 144 148 164 147 237 190 225 195 171 169 171 157 173 184 173 181 156
319 316 307 311 318 326 332 337 348 331 303 296 293 271 243 235 242 229 207 194 196 194 190 186 175 170 170 189 182 155 284 165 241 204 200 194 187 184 187 178 160 168 191 177 166
318 309 309 308 312 319 320 321 329 338 347 314 296 287 272 247 244 235 221 209 203 198 198 192 182 193 194 198 179 206 231 235 259 204 205 207 194 198 193 191 174 145 160 175 164
305 309 306 308 307 314 316 314 312 318 320 321 327 296 284 279 250 235 226 220 212 206 204 203 204 200 195 191 195 229 195 241 229 220 210 203 206 209 199 185 167 138 145 157 152
306 301 300 304 307 316 315 311 310 308 312 314 313 317 303 287 276 239 226 222 217 212 207 203 206 210 205 194 195 197 227 238 227 213 221 202 212 217 198 170 170 149 153 154 149
287 291 295 295 294 296 300 307 308 304 301 303 307 307 309 313 280 267 240 223 218 216 210 206 209 207 199 194 209 208 213 243 267 219 223 227 234 225 200 179 158 156 155 154 152
284 284 284 284 286 289 291 290 293 297 299 296 296 297 305 300 297 279 264 236 221 221 216 210 214 209 213 205 208 212 219 212 226 256 227 224 272 206 208 182 167 156 157 159 157
285 286 286 284 285 284 284 285 283 281 287 287 287 292 297 294 291 291 276 258 229 223 224 218 215 215 218 214 207 206 206 220 250 266 231 218 220 207 198 189 179 164 161 167 175
284 285 284 283 283 279 279 280 282 281 280 276 278 279 279 286 283 284 273 270 250 230 227 229 223 227 225 220 202 200 218 235 209 267 227 220 202 220 205 199 192 175 177 172 174
279 281 275 274 275 278 279 280 280 280 274 273 270 269 269 270 271 272 277 266 263 247 229 227 230 225 224 218 209 195 215 223 217 234 242 224 227 223 228 213 205 191 177 183 181
280 275 274 276 276 277 274 274 275 276 274 269 269 265 267 262 263 269 268 265 257 247 242 235 239 229 224 218 214 206 205 217 214 226 254 207 237 238 233 227 218 208 199 193 194
281 278 273 272 273 275 278 278 278 276 275 267 260 268 265 265 262 262 263 263 261 251 242 235 231 232 228 222 218 218 203 208 211 237 223 236 221 253 248 235 230 225 218 213 212
279 274 272 272 275 273 273 273 273 273 272 270 263 259 262 262 259 259 256 257 255 251 243 246 233 232 231 230 221 218 216 214 214 238 224 239 235 241 222 249 236 226 219 219 221
276 275 269 268 269 269 269 268 268 268 268 268 265 263 259 255 256 254 251 247 252 245 244 240 231 226 235 233 226 217 213 220 224 221 236 223 244 225 245 214 247 243 233 236 232
277 274 271 268 267 266 265 262 261 261 266 267 270 263 258 255 254 253 249 247 250 257 251 244 242 228 228 232 231 217 215 215 222 225 227 232 237 223 230 246 239 237 247 246 241
282 277 273 268 263 262 260 258 258 262 257 261 264 264 257 256 250 250 248 246 242 243 245 239 242 239 230 235 229 224 217 215 222 227 229 226 229 235 232 219 233 212 222 255 264
282 279 275 271 263 257 255 260 266 256 254 258 259 258 258 253 251 249 247 247 243 240 243 247 240 237 235 233 227 224 224 221 225 234 232 233 240 230 224 229 229 233 228 240 257
287 287 279 274 264 256 255 267 256 251 251 247 250 253 250 252 251 245 248 248 245 243 236 233 229 238 237 231 228 219 228 219 219 222 229 234 233 231 245 242 220 231 234 232 247
292 293 287 272 263 255 260 257 247 246 246 246 247 246 245 240 242 247 242 245 246 242 237 235 233 227 225 237 231 223 216 223 226 225 224 231 231 235 244 244 233 229 236 233 236
295 289 286 273 256 252 250 245 242 239 240 242 241 242 239 229 231 233 243 232 237 242 239 236 232 229 231 228 234 223 226 218 222 222 226 225 230 237 231 241 230 214 214 218 236
289 285 268 270 257 245 244 239 237 236 235 236 238 237 237 231 223 221 227 222 227 234 231 227 228 224 229 222 229 234 225 222 223 230 229 225 227 214 210 232 233 223 213 210 229
280 274 259 258 249 243 238 234 232 230 233 234 233 235 233 230 224 223 223 218 232 236 229 223 223 230 230 238 228 232 232 218 222 226 230 229 227 222 233 233 220 227 215 217 234
270 265 258 251 252 248 240 233 232 233 226 225 228 229 230 226 224 226 228 223 221 237 233 228 229 226 232 212 227 229 230 228 219 226 228 232 234 229 229 234 237 240 220 225 222
278 274 263 254 249 245 237 246 239 231 225 224 222 217 227 222 226 224 225 223 227 226 235 229 228 226 224 227 221 222 232 228 227 227 234 230 231 233 233 235 229 233 225 225 219
275 274 272 263 252 252 244 241 239 237 229 222 202 210 205 206 207 206 207 216 223 222 235 228 225 223 227 223 225 227 218 230 239 236 232 231 232 227 223 224 229 237 234 228 228